This demonstration page uses our WeatherBlox Daily Observations layout. Learn more.

Left ArrowRight Arrow

38.83388, -104.82136

Hourly Observations for January 29, 2021

Temp ( °F °C ) Dew Point ( °F °C ) Humidity (%) Winds ( mph kmh ) Pressure ( in mb ) Visibility ( mi km ) Precip ( " mm )
12:56 am 00:56 Clear 37 2.6 16 -8.8 43 43 Calm 29.65 1004 10 16 0.00 0.00
1:56 am 01:56 Clear 37 3 16 -9 41 41 WNW 3 6 29.63 1003 10 16 0.00 0.00
2:56 am 02:56 Clear 39 3.9 15 -9.6 37 37 Calm 29.62 1003 10 16 0.00 0.00
3:56 am 03:56 Clear 38 3.3 14 -9.8 38 38 W 5 7 29.61 1003 10 16 0.00 0.00
4:29 am 04:29 Clear 41 5 10 -12 28 28 NNE 16 26 29.56 1001 10 16 0.00 0.00
4:30 am 04:30 Clear 41 5 7 -14 24 24 NNW 13 20 29.56 1001 10 16 0.00 0.00
4:56 am 04:56 Mostly Cloudy 41 4.8 10 -12.4 28 28 NNW 16 26 29.56 1001 10 16 0.00 0.00
4:59 am 04:59 Mostly Cloudy 43 6 7 -14 22 22 N 16 26 29.56 1001 10 16 0.00 0.00
5:17 am 05:17 Mostly Clear 45 7 3 -16 18 18 NNE 15 24 29.52 1000 10 16 0.00 0.00
5:25 am 05:25 Mostly Clear 45 7 3 -16 18 18 NW 18 30 29.53 1000 10 16 0.00 0.00
5:27 am 05:27 Clear 45 7 5 -15 19 19 NNW 13 20 29.54 1001 10 16 0.00 0.00
5:28 am 05:28 Clear 45 7 3 -16 18 18 NNE 13 20 29.52 1000 10 16 0.00 0.00
5:30 am 05:30 Clear 46 8 1 -17 15 15 NNW 16 26 29.53 1000 10 16 0.00 0.00
5:43 am 05:43 Clear 48 9 0 -18 13 13 N 16 26 29.51 999 10 16 0.00 0.00
5:44 am 05:44 Clear 48 9 1 -17 14 14 NW 15 24 29.52 1000 10 16 0.00 0.00
5:51 am 05:51 Clear 48 9 1 -17 14 14 N 16 26 29.52 1000 10 16 0.00 0.00
5:53 am 05:53 Clear 48 9 0 -18 13 13 NNW 14 22 29.51 999 10 16 0.00 0.00
5:56 am 05:56 Clear 48 8.9 1 -17 14 14 NNW 13 20 29.51 999 10 16 0.00 0.00
6:17 am 06:17 Clear 48 9 1 -17 14 14 WNW 13 20 29.51 999 10 16 0.00 0.00
6:23 am 06:23 Clear 50 10 0 -18 12 12 WNW 15 24 29.50 999 10 16 0.00 0.00
6:25 am 06:25 Clear 50 10 1 -17 13 13 NNW 20 31 29.49 999 10 16 0.00 0.00
6:49 am 06:49 Clear 50 10 0 -18 12 12 N 16 26 29.49 999 10 16 0.00 0.00
6:55 am 06:55 Clear 50 10 1 -17 13 13 NW 23 37 29.49 999 10 16 0.00 0.00
6:56 am 06:56 Clear 50 9.8 1 -17 13 13 NW 23 37 29.49 999 10 16 0.00 0.00
7:04 am 07:04 Clear 50 10 1 -17 13 13 NW 23 37 29.48 998 10 16 0.00 0.00
7:14 am 07:14 Mostly Sunny 50 10 3 -16 14 14 NNW 24 39 29.45 997 10 16 0.00 0.00
7:16 am 07:16 Mostly Sunny 50 10 3 -16 14 14 NNE 20 31 29.47 998 10 16 0.00 0.00
7:17 am 07:17 Mostly Sunny 50 10 3 -16 14 14 N 25 41 29.45 997 10 16 0.00 0.00
7:27 am 07:27 Mostly Sunny 50 10 5 -15 16 16 NNW 28 44 29.46 998 10 16 0.00 0.00
7:32 am 07:32 Partly Cloudy 50 10 3 -16 14 14 N 13 20 29.48 998 10 16 0.00 0.00
7:33 am 07:33 Partly Cloudy 50 10 3 -16 14 14 S 13 20 29.49 999 10 16 0.00 0.00
7:34 am 07:34 Partly Cloudy 50 10 3 -16 14 14 ESE 15 24 29.49 999 10 16 0.00 0.00
7:35 am 07:35 Partly Cloudy 50 10 3 -16 14 14 N 22 35 29.51 999 10 16 0.00 0.00
7:46 am 07:46 Partly Cloudy 50 10 3 -16 14 14 NW 22 35 29.49 999 10 16 0.00 0.00
7:54 am 07:54 Mostly Cloudy 50 10 5 -15 16 16 N 17 28 29.49 999 10 16 0.00 0.00
7:56 am 07:56 Mostly Cloudy 50 9.8 5 -15.1 16 16 N 16 26 29.48 998 10 16 0.00 0.00
8:05 am 08:05 Mostly Cloudy 50 10 5 -15 16 16 WNW 23 37 29.50 999 10 16 0.00 0.00
8:12 am 08:12 Mostly Sunny 50 10 7 -14 17 17 WNW 25 41 29.45 997 10 16 0.00 0.00
8:13 am 08:13 Mostly Sunny 50 10 7 -14 17 17 NNW 20 31 29.47 998 10 16 0.00 0.00
8:16 am 08:16 Mostly Sunny 50 10 7 -14 17 17 WNW 15 24 29.47 998 10 16 0.00 0.00
8:18 am 08:18 Mostly Sunny 50 10 9 -13 19 19 NW 14 22 29.49 999 10 16 0.00 0.00
8:26 am 08:26 Mostly Sunny 50 10 9 -13 19 19 W 25 41 29.46 998 10 16 0.00 0.00
8:27 am 08:27 Sunny 50 10 9 -13 19 19 NNW 14 22 29.47 998 10 16 0.00 0.00
8:34 am 08:34 Sunny 50 10 9 -13 19 19 WNW 18 30 29.47 998 10 16 0.00 0.00
8:35 am 08:35 Sunny 50 10 9 -13 19 19 NNW 20 31 29.49 999 10 16 0.00 0.00
8:45 am 08:45 Partly Cloudy 50 10 9 -13 19 19 WNW 23 37 29.51 999 10 16 0.00 0.00
8:47 am 08:47 Partly Cloudy 50 10 9 -13 19 19 NNW 21 33 29.47 998 10 16 0.00 0.00
8:53 am 08:53 Mostly Sunny 50 10 9 -13 19 19 WNW 28 44 29.49 999 10 16 0.00 0.00
8:56 am 08:56 Mostly Sunny 50 9.8 8 -13.1 19 19 NW 24 39 29.49 999 10 16 0.00 0.00
8:57 am 08:57 Mostly Sunny 50 10 9 -13 19 19 NW 24 39 29.49 999 10 16 0.00 0.00
9:08 am 09:08 Mostly Sunny 48 9 9 -13 20 20 N 14 22 29.49 999 10 16 0.00 0.00
9:10 am 09:10 Mostly Sunny 50 10 9 -13 19 19 NNW 13 20 29.49 999 10 16 0.00 0.00
9:22 am 09:22 Partly Cloudy 50 10 9 -13 19 19 WNW 20 31 29.49 999 10 16 0.00 0.00
9:31 am 09:31 Mostly Sunny 50 10 9 -13 19 19 NW 14 22 29.46 998 10 16 0.00 0.00
9:34 am 09:34 Mostly Sunny 50 10 9 -13 19 19 S 15 24 29.46 998 10 16 0.00 0.00
9:39 am 09:39 Mostly Sunny 50 10 9 -13 19 19 NW 14 22 29.47 998 10 16 0.00 0.00
9:41 am 09:41 Mostly Sunny 50 10 9 -13 19 19 WSW 17 28 29.46 998 10 16 0.00 0.00
9:42 am 09:42 Mostly Sunny 50 10 9 -13 19 19 SSW 17 28 29.46 998 10 16 0.00 0.00
9:43 am 09:43 Mostly Sunny 50 10 9 -13 19 19 SE 18 30 29.44 997 10 16 0.00 0.00
9:48 am 09:48 Mostly Sunny 50 10 9 -13 19 19 WNW 18 30 29.46 998 10 16 0.00 0.00
9:56 am 09:56 Sunny 49 9.4 10 -12.2 21 21 NW 9 15 29.46 998 10 16 0.00 0.00
9:58 am 09:58 Sunny 48 9 9 -13 20 20 NNW 17 28 29.47 998 10 16 0.00 0.00
10:17 am 10:17 Sunny 48 9 10 -12 21 21 NNW 21 33 29.46 998 10 16 0.00 0.00
10:25 am 10:25 Sunny 50 10 10 -12 20 20 WNW 17 28 29.44 997 10 16 0.00 0.00
10:36 am 10:36 Sunny 50 10 10 -12 20 20 NNW 13 20 29.46 998 10 16 0.00 0.00
10:50 am 10:50 Sunny 50 10 10 -12 20 20 NNW 18 30 29.44 997 10 16 0.00 0.00
10:51 am 10:51 Sunny 50 10 10 -12 20 20 WNW 21 33 29.44 997 10 16 0.00 0.00
10:52 am 10:52 Sunny 50 10 9 -13 19 19 SW 17 28 29.44 997 10 16 0.00 0.00
10:53 am 10:53 Sunny 50 10 9 -13 19 19 NNW 14 22 29.46 998 10 16 0.00 0.00
10:54 am 10:54 Sunny 50 10 9 -13 19 19 NNE 12 19 29.44 997 10 16 0.00 0.00
10:56 am 10:56 Sunny 51 10.4 10 -12.2 19 19 W 17 28 29.46 998 10 16 0.00 0.00
10:58 am 10:58 Sunny 50 10 10 -12 20 20 WNW 20 31 29.44 997 10 16 0.00 0.00
10:59 am 10:59 Sunny 50 10 10 -12 20 20 N 15 24 29.44 997 10 16 0.00 0.00
11:00 am 11:00 Sunny 50 10 10 -12 20 20 W 14 22 29.44 997 10 16 0.00 0.00
11:01 am 11:01 Sunny 50 10 10 -12 20 20 SW 16 26 29.44 997 10 16 0.00 0.00
11:02 am 11:02 Sunny 50 10 10 -12 20 20 S 14 22 29.42 996 10 16 0.00 0.00
11:03 am 11:03 Sunny 50 10 10 -12 20 20 WSW 14 22 29.42 996 10 16 0.00 0.00
11:04 am 11:04 Sunny 50 10 10 -12 20 20 N 16 26 29.44 997 10 16 0.00 0.00
11:12 am 11:12 Sunny 50 10 10 -12 20 20 W 14 22 29.41 996 10 16 0.00 0.00
11:13 am 11:13 Sunny 50 10 10 -12 20 20 SSE 12 19 29.42 996 10 16 0.00 0.00
11:23 am 11:23 Sunny 52 11 10 -12 19 19 NNW 18 30 29.39 995 10 16 0.00 0.00
11:26 am 11:26 Sunny 50 10 10 -12 20 20 N 16 26 29.41 996 10 16 0.00 0.00
11:32 am 11:32 Sunny 50 10 10 -12 20 20 N 16 26 29.42 996 10 16 0.00 0.00
11:34 am 11:34 Sunny 50 10 10 -12 20 20 NW 15 24 29.41 996 10 16 0.00 0.00
11:35 am 11:35 Sunny 50 10 10 -12 20 20 WSW 14 22 29.42 996 10 16 0.00 0.00
11:39 am 11:39 Sunny 50 10 10 -12 20 20 WNW 21 33 29.42 996 10 16 0.00 0.00
11:45 am 11:45 Sunny 50 10 10 -12 20 20 N 17 28 29.39 995 10 16 0.00 0.00
11:46 am 11:46 Sunny 50 10 10 -12 20 20 NW 22 35 29.39 995 10 16 0.00 0.00
11:48 am 11:48 Sunny 50 10 10 -12 20 20 WSW 12 19 29.42 996 10 16 0.00 0.00
11:56 am 11:56 Sunny 51 10.3 10 -12.2 19 19 NW 17 28 29.43 997 10 16 0.00 0.00
12:10 pm 12:10 Mostly Sunny 50 10 10 -12 20 20 W 15 24 29.42 996 10 16 0.00 0.00
12:55 pm 12:55 Sunny 50 10 10 -12 20 20 N 14 22 29.41 996 10 16 0.00 0.00
12:56 pm 12:56 Sunny 50 9.9 10 -12.1 20 20 ENE 10 17 29.41 996 10 16 0.00 0.00
1:56 pm 13:56 Sunny 52 10.9 9 -12.7 18 18 ENE 9 15 29.36 994 10 16 0.00 0.00
2:56 pm 14:56 Sunny 51 10.6 5 -15 15 15 SSE 10 17 29.34 994 10 16 0.00 0.00
3:56 pm 15:56 Sunny 48 8.9 3 -15.9 16 16 SSE 8 13 29.37 995 10 16 0.00 0.00
4:56 pm 16:56 Sunny 44 6.8 9 -12.8 23 23 NW 5 7 29.38 995 10 16 0.00 0.00
5:56 pm 17:56 Clear 45 7.3 5 -14.9 19 19 SSW 6 9 29.35 994 10 16 0.00 0.00
6:56 pm 18:56 Clear 44 6.7 4 -15.6 19 19 S 6 9 29.33 993 10 16 0.00 0.00
7:56 pm 19:56 Clear 43 6 6 -14.7 21 21 S 20 31 29.30 992 10 16 0.00 0.00

Powered by AerisWeather